Starlink 2654

operational
NORAD ID: 48454 Int'l Des: 2021-040 Owner: SPXS Country: US Constellation: starlink
LEOCIRCULARSTARLINK_TYPE

Starlink 2654について

説明を読み込み中...

リアルタイム位置

3D地球を読み込み中...

次回通過

高度履歴

Altitude vs Time

uPlot chart will show altitude changes over time

軌道要素

1 48454U 21040AC 26035.19836629 .00001336 00000-0 10851-3 0 9993
2 48454 53.0538 331.9666 0001365 89.3338 270.7808 15.06416023261586
Epoch: Feb 4, 2026 • Age: 26 hours

現在のステータス

高度 548.9 km
速度 7.59 km/s
衛星直下点 34.00°N, 125.55°E
打ち上げ日 May 9, 2021
運用期間 4.7 years
タイプ internet

技術仕様

分類 Payload
質量 260.00 kg
乾燥質量 248.00 kg
総質量 260.00 kg
長さ 0.20 m
直径 2.80 m
スパン 9.00 m
形状 Box + pan
製造者 SPXS
バスタイプ Starlink
フェーズステータス In Orbit
所有者/国 SPXS/US

大規模コンステレーション

Loading constellations...